Location: Unspecified
(0.0000°N, 0.0000°E)
Time: 20:33:58
(UTC+02:00)

Meteor PRIRODA - Visible Passes

Search period start: 01 September 2014 00:00
Search period end: 11 September 2014 00:00
Orbit: 511 x 534 km, 97.3° (Epoch: 31 August)

Date Brightness Start Highest point End Pass type
(mag) Time Alt. Az. Time Alt. Az. Time Alt. Az.
01 Sep 4.1 06:37:39 10° NNE 06:41:27 64° E 06:45:17 10° S visible
02 Sep 5.1 06:25:06 10° NNE 06:28:42 39° E 06:32:18 10° S visible
03 Sep 6.0 06:12:47 10° NE 06:15:56 24° ESE 06:19:06 10° SSE visible
04 Sep 6.7 06:00:48 10° ENE 06:03:11 16° ESE 06:05:34 10° SE visible
05 Sep 4.9 07:21:12 10° NNW 07:24:20 24° W 07:27:28 10° SW visible
06 Sep 4.2 07:07:59 10° N 07:11:33 38° W 07:15:08 10° SSW visible
07 Sep 3.7 06:54:58 10° N 06:58:46 63° W 07:02:34 10° SSW visible
08 Sep 3.8 06:42:08 10° NNE 06:45:58 79° ESE 06:49:49 10° S visible
09 Sep 4.7 06:29:29 10° NNE 06:33:10 47° E 06:36:53 10° S visible
10 Sep 5.7 06:17:01 10° NE 06:20:23 29° E 06:23:44 10° SSE visible
